Weather History for Corpus Christi, TX

Change the Weather History Date:

Sunday, March 9, 2014

  Actual Average Record
Temperature  
Mean Temperature 52 °F 65 °F  
Max Temperature 55 °F 75 °F 96 °F (1901)
Min Temperature 48 °F 55 °F 32 °F (1932)
Degree Days  
Heating Degree Days 13 3  
Month to date heating degree days 94 35  
Since 1 July heating degree days 1093 835  
Cooling Degree Days 0 3  
Month to date cooling degree days 4 26  
Year to date cooling degree days 81 102  
Growing Degree Days 2 (Base 50)    
Moisture  
Dew Point 47 °F    
Average Humidity 85    
Maximum Humidity 93    
Minimum Humidity 77    
Precipitation  
Precipitation 0.48 in 0.06 in 0.80 in (1887)
Month to date precipitation 1.34 0.62  
Year to date precipitation 2.25 4.09  
Snow  
Snow 0.00 in - - ()
Month to date snowfall 0.0  
Since 1 July snowfall T  
Snow Depth 0.00 in    
Sea Level Pressure  
Sea Level Pressure 30.20 in    
Wind  
Wind Speed 14 mph (North)    
Max Wind Speed 29 mph    
Max Gust Speed 35 mph    
Visibility 7 miles    
Events Rain , Thunderstorm    
T = Trace of Precipitation, MM = Missing Value Source: NWS Daily Summary

Daily Weather History Graph

Daily Weather History Graph

Search for Another Location

Airport:

Trip Planner

Search our weather history database for the weather conditions in past years. The results will help you decide how hot, cold, wet, or windy it might be!

Date:

Astronomy

Mar. 09, 2014 Rise Set
Actual Time 7:46 AM CDT 7:35 PM CDT
Civil Twilight 7:22 AM CDT 7:58 PM CDT
Nautical Twilight 6:55 AM CDT 8:25 PM CDT
Astronomical Twilight 6:28 AM CDT 8:53 PM CDT
Moon 1:50 PM CDT (3/9) 3:51 AM CDT (3/9)
Length of Visible Light 12h 36m
Length of Day
11h 49m
First Quarter, 61% of the Moon is Illuminated
Mar 9
First Quarter
Mar 16
Full
Mar 23
Last Quarter
Mar 30
New
Apr 7
First Quarter

Hourly Weather History & Observations

Time (CDT) Temp. Dew Point Humidity Pressure Visibility Wind Dir Wind Speed Gust Speed Precip Events Conditions
12:51 AM 53.1 °F 48.9 °F 86% 30.13 in 8.0 mi NNE 28.8 mph 32.2 mph 0.00 in Rain Light Rain
1:28 AM 51.8 °F 48.2 °F 88% 30.15 in 6.0 mi NNE 20.7 mph 28.8 mph 0.03 in Rain , Thunderstorm Thunderstorms and Rain
1:48 AM 51.8 °F 48.2 °F 88% 30.14 in 6.0 mi NNE 24.2 mph - 0.09 in Rain Rain
1:51 AM 52.0 °F 48.9 °F 89% 30.14 in 6.0 mi NNE 23.0 mph 29.9 mph 0.10 in Rain Rain
3:38 AM 51.8 °F 48.2 °F 88% 30.13 in 8.0 mi NNE 19.6 mph 27.6 mph 0.12 in Rain Light Rain
3:49 AM 51.8 °F 48.2 °F 88% 30.14 in 6.0 mi North 19.6 mph - 0.13 in Rain Rain
3:51 AM 51.1 °F 48.0 °F 89% 30.14 in 6.0 mi North 19.6 mph - 0.14 in Rain Rain
4:51 AM 50.0 °F 46.9 °F 89% 30.15 in 9.0 mi North 17.3 mph - 0.08 in Rain Light Rain
5:51 AM 50.0 °F 46.0 °F 86% 30.15 in 7.0 mi NNE 17.3 mph - 0.10 in Rain Light Rain
6:51 AM 48.9 °F 46.0 °F 90% 30.16 in 7.0 mi North 16.1 mph 26.5 mph 0.05 in Rain Light Rain
7:51 AM 50.0 °F 46.0 °F 86% 30.20 in 5.0 mi North 17.3 mph - 0.01 in   Overcast
8:51 AM 48.0 °F 45.0 °F 89% 30.22 in 3.0 mi North 17.3 mph - N/A   Overcast
9:15 AM 48.2 °F 44.6 °F 87% 30.23 in 1.5 mi North 15.0 mph - N/A   Overcast
9:51 AM 48.0 °F 44.1 °F 86% 30.25 in 1.5 mi North 18.4 mph - N/A   Overcast
10:51 AM 48.9 °F 44.1 °F 83% 30.27 in 1.5 mi North 19.6 mph - N/A   Haze
11:51 AM 48.9 °F 44.1 °F 83% 30.27 in 1.5 mi North 18.4 mph - N/A   Haze
12:51 PM 48.9 °F 45.0 °F 86% 30.25 in 2.0 mi North 16.1 mph - 0.00 in   Overcast
1:51 PM 48.9 °F 45.0 °F 86% 30.24 in 2.0 mi North 16.1 mph - N/A   Overcast
2:48 PM 50.0 °F 46.4 °F 87% 30.23 in 5.0 mi NNW 13.8 mph - 0.00 in   Overcast
2:51 PM 50.0 °F 46.0 °F 86% 30.23 in 5.0 mi North 15.0 mph - 0.00 in   Overcast
3:51 PM 52.0 °F 46.0 °F 80% 30.21 in 7.0 mi NNW 9.2 mph - N/A   Overcast
4:51 PM 53.1 °F 46.9 °F 80% 30.19 in 8.0 mi North 10.4 mph - N/A   Overcast
5:51 PM 54.0 °F 48.0 °F 80% 30.18 in 9.0 mi North 9.2 mph - N/A   Overcast
6:30 PM 55.4 °F 48.2 °F 77% 30.19 in 9.0 mi North 8.1 mph - N/A   Overcast
6:51 PM 55.0 °F 48.0 °F 77% 30.19 in 9.0 mi North 9.2 mph - N/A   Overcast
7:51 PM 55.0 °F 48.9 °F 80% 30.22 in 9.0 mi NNW 4.6 mph - N/A   Overcast
8:51 PM 54.0 °F 48.9 °F 83% 30.23 in 10.0 mi NW 8.1 mph - N/A   Overcast
9:51 PM 54.0 °F 48.9 °F 83% 30.25 in 10.0 mi North 8.1 mph - N/A   Overcast
10:48 PM 53.6 °F 48.2 °F 82% 30.26 in 10.0 mi North 6.9 mph - N/A   Overcast
10:51 PM 54.0 °F 48.9 °F 83% 30.26 in 10.0 mi NNW 6.9 mph - N/A   Overcast
11:07 PM 53.6 °F 48.2 °F 82% 30.25 in 10.0 mi North 9.2 mph - N/A   Overcast
11:22 PM 53.6 °F 48.2 °F 82% 30.25 in 10.0 mi North 6.9 mph - N/A   Overcast
11:46 PM 53.6 °F 48.2 °F 82% 30.24 in 9.0 mi North 6.9 mph - N/A   Overcast
11:51 PM 54.0 °F 48.9 °F 83% 30.24 in 9.0 mi NNE 6.9 mph - N/A   Overcast
12:51 AM 54.0 °F 48.0 °F 80% 30.19 in 10.0 mi NNE 8.1 mph - N/A   Overcast